GW3820 Weather Reports


Display with metric or nautical units.
time (UTC)temp
F
wind
direction
speed
MPH
gust
MPH
rain 1hr
in
rain 24hr
in
rain mn
in
humidity
%
barometer
mb
20260510201816 62 320 5.0 11.0 0.00 0.01 0.00 30 1017.8
20260510200816 63 337 5.0 10.0 0.00 0.03 0.00 31 1017.8
20260510195816 60 46 1.0 2.0 0.00 0.03 0.00 32 1017.9
20260510194817 61 312 2.0 7.0 0.00 0.03 0.00 32 1017.9
20260510193816 62 295 6.0 12.0 0.00 0.03 0.00 30 1018.0
20260510192836 64 332 5.0 13.0 0.00 0.03 0.00 31 1018.1
20260510191816 63 332 10.0 13.0 0.00 0.03 0.00 31 1018.0
20260510190816 63 326 9.0 14.0 0.00 0.03 0.00 30 1018.1
20260510185816 64 336 9.0 12.0 0.00 0.03 0.00 31 1018.1
20260510184816 61 300 5.0 9.0 0.00 0.03 0.00 30 1018.1
20260510183816 63 285 4.0 10.0 0.00 0.03 0.00 31 1018.0
20260510182816 62 13 8.0 13.0 0.00 0.03 0.00 32 1017.9
20260510181816 62 258 6.0 17.0 0.00 0.03 0.00 31 1017.8
20260510180837 62 32 7.0 10.0 0.00 0.03 0.00 33 1017.6
20260510175817 63 9 7.0 11.0 0.00 0.03 0.00 33 1017.6
20260510174816 61 340 6.0 16.0 0.00 0.03 0.00 32 1017.6
20260510173816 61 235 3.0 12.0 0.00 0.03 0.00 31 1017.7
20260510172816 60 285 3.0 10.0 0.00 0.03 0.00 29 1017.6
20260510171816 61 305 2.0 11.0 0.00 0.03 0.00 32 1017.6
20260510170816 61 288 4.0 10.0 0.00 0.03 0.00 33 1017.7
20260510165857 59 320 3.0 11.0 0.00 0.03 0.00 35 1017.9
20260510164816 59 321 5.0 9.0 0.00 0.03 0.00 33 1017.9
20260510163837 59 275 7.0 11.0 0.00 0.03 0.00 32 1017.9
20260510162816 60 355 5.0 13.0 0.00 0.03 0.00 32 1017.9
20260510161816 60 29 8.0 12.0 0.00 0.03 0.00 33 1017.9
20260510160837 60 296 4.0 8.0 0.00 0.03 0.00 33 1017.9
20260510155817 59 288 4.0 7.0 0.00 0.03 0.00 33 1017.8
20260510154817 60 345 6.0 11.0 0.00 0.03 0.00 35 1017.7
20260510153817 58 80 2.0 5.0 0.00 0.03 0.00 37 1017.6
20260510152817 58 316 3.0 6.0 0.00 0.03 0.00 35 1017.5
20260510151817 58 322 4.0 13.0 0.00 0.03 0.00 35 1017.6
20260510150816 57 260 5.0 7.0 0.00 0.03 0.00 38 1017.3
20260510145837 58 348 7.0 11.0 0.00 0.03 0.00 37 1017.3
20260510144817 56 263 4.0 6.0 0.00 0.03 0.00 38 1017.1
20260510143816 56 310 7.0 12.0 0.00 0.03 0.00 36 1017.1
20260510142817 56 261 6.0 12.0 0.00 0.03 0.00 38 1017.1
20260510141816 56 259 3.0 7.0 0.00 0.03 0.00 40 1017.0
20260510140817 56 277 6.0 7.0 0.00 0.03 0.00 38 1016.9
20260510135816 55 10 2.0 3.0 0.00 0.03 0.00 41 1016.9
20260510134817 54 291 2.0 3.0 0.00 0.03 0.00 44 1016.9
20260510133917 54 22 3.0 5.0 0.00 0.03 0.00 44 1017.0
20260510132816 52 228 3.0 5.0 0.00 0.03 0.00 46 1017.0
20260510131816 52 256 1.0 3.0 0.00 0.03 0.00 46 1017.0
20260510130837 52 42 2.0 4.0 0.00 0.03 0.00 47 1016.9
20260510125817 51 358 3.0 4.0 0.00 0.03 0.00 50 1016.8
20260510124816 50 75 2.0 3.0 0.00 0.03 0.00 52 1016.6
20260510123816 49 296 2.0 4.0 0.00 0.03 0.00 54 1016.4
20260510122816 49 358 1.0 3.0 0.00 0.03 0.00 55 1016.3
20260510121817 49 358 4.0 7.0 0.00 0.03 0.00 57 1016.2
20260510120817 48 5 2.0 4.0 0.00 0.03 0.00 59 1016.2
20260510115816 46 345 1.0 3.0 0.00 0.03 0.00 63 1016.2
20260510114817 44 342 1.0 4.0 0.00 0.03 0.00 68 1016.0
20260510113817 43 285 0.0 1.0 0.00 0.03 0.00 73 1015.9
20260510112816 41 283 1.0 1.0 0.00 0.03 0.00 73 1015.6
20260510111816 40 0.0 0.0 0.00 0.03 0.00 74 1015.4
20260510110817 39 0.0 0.0 0.00 0.03 0.00 73 1015.2
20260510105816 39 0.0 0.0 0.00 0.03 0.00 72 1015.1
20260510104817 40 0.0 0.0 0.00 0.03 0.00 70 1014.8
20260510103817 41 0.0 0.0 0.00 0.03 0.00 68 1014.6
20260510102816 42 0.0 0.0 0.00 0.03 0.00 67 1014.5
20260510101817 42 0.0 0.0 0.00 0.03 0.00 65 1014.4
20260510100816 43 338 2.0 3.0 0.00 0.03 0.00 65 1014.3
20260510095816 43 317 0.0 3.0 0.00 0.03 0.00 64 1014.3
20260510094817 44 330 1.0 3.0 0.00 0.03 0.00 64 1014.3
20260510093816 44 14 2.0 3.0 0.00 0.03 0.00 64 1014.1
20260510092817 44 342 1.0 3.0 0.00 0.03 0.00 64 1014.0
20260510091817 45 346 1.0 4.0 0.00 0.03 0.00 64 1013.9
20260510090817 45 347 1.0 3.0 0.00 0.03 0.00 65 1013.8
20260510085816 44 327 3.0 4.0 0.00 0.03 0.00 66 1013.6
20260510084817 44 287 1.0 4.0 0.00 0.03 0.00 68 1013.3
20260510083837 44 333 2.0 5.0 0.00 0.03 0.00 71 1013.0
20260510082817 44 316 1.0 3.0 0.00 0.03 0.00 71 1012.8
20260510081817 44 0.0 0.0 0.00 0.03 0.00 71 1012.4
20260510080817 44 337 2.0 5.0 0.00 0.03 0.00 72 1012.3
20260510075817 44 5 0.0 1.0 0.00 0.03 0.00 73 1012.0
20260510074816 45 0.0 0.0 0.00 0.03 0.00 72 1011.6
20260510073816 46 0.0 0.0 0.00 0.03 0.00 71 1011.4
20260510072817 46 0.0 0.0 0.00 0.03 0.00 70 1011.1
20260510071816 47 0.0 0.0 0.00 0.03 0.00 69 1011.0
20260510070816 47 320 0.0 1.0 0.00 0.03 0.00 69 1010.9
20260510065835 47 13 0.0 1.0 0.00 0.03 0.00 67 1010.7
20260510064817 47 327 1.0 2.0 0.00 0.03 0.00 69 1010.6
20260510063816 47 324 1.0 2.0 0.00 0.03 0.00 69 1010.5
20260510062817 47 324 1.0 2.0 0.00 0.03 0.00 69 1010.4
20260510061857 47 311 0.0 2.0 0.00 0.03 0.00 68 1010.4
20260510060837 48 0.0 0.0 0.00 0.03 0.00 67 1010.2
20260510055817 48 310 1.0 1.0 0.00 0.03 0.00 66 1010.1
20260510054817 49 310 1.0 2.0 0.00 0.03 0.00 66 1010.0
20260510053815 50 0.0 0.0 0.00 0.03 0.00 65 1010.0
20260510052817 51 0.0 0.0 0.00 0.03 0.00 64 1010.0
20260510051817 51 0.0 0.0 0.00 0.03 0.00 61 1009.9
20260510050817 52 0.0 1.0 0.00 0.03 0.00 59 1009.8
20260510045817 53 329 0.0 2.0 0.00 0.03 0.00 57 1009.7
20260510044837 54 322 1.0 3.0 0.00 0.03 0.00 55 1009.5
20260510043817 55 12 0.0 1.0 0.00 0.03 0.00 53 1009.2
20260510042816 56 1 1.0 3.0 0.00 0.03 0.00 52 1009.1
20260510041835 57 15 3.0 5.0 0.00 0.03 0.00 51 1008.8
20260510040817 58 351 3.0 5.0 0.00 0.03 0.00 50 1008.8
20260510035817 58 357 3.0 6.0 0.00 0.03 0.03 49 1008.7
20260510034817 59 340 2.0 6.0 0.00 0.03 0.03 48 1008.6
20260510033816 60 16 4.0 7.0 0.00 0.03 0.03 48 1008.4
20260510032837 60 349 4.0 9.0 0.00 0.03 0.03 47 1008.2
20260510031817 60 356 3.0 4.0 0.00 0.03 0.03 47 1008.0
20260510030857 60 14 8.0 11.0 0.00 0.03 0.03 48 1007.9
20260510025816 61 2 5.0 10.0 0.00 0.03 0.03 49 1007.7
20260510024817 60 15 6.0 13.0 0.00 0.03 0.03 52 1007.4
20260510023857 60 4 1.0 5.0 0.00 0.03 0.03 56 1007.2
20260510022817 60 359 1.0 3.0 0.00 0.03 0.03 57 1006.8
20260510021837 59 352 1.0 3.0 0.00 0.03 0.03 58 1006.4
20260510020817 57 317 7.0 12.0 0.00 0.03 0.03 62 1006.2
20260510015817 57 0.0 0.0 0.00 0.03 0.03 64 1005.7
20260510014817 57 309 1.0 2.0 0.00 0.03 0.03 62 1005.3
20260510013816 57 0.0 0.0 0.00 0.03 0.03 60 1005.0
20260510012817 58 0.0 1.0 0.00 0.03 0.03 59 1004.8
20260510011837 59 221 0.0 1.0 0.00 0.03 0.03 56 1004.7
20260510010817 60 0.0 0.0 0.00 0.03 0.03 58 1004.5
20260510005817 62 221 0.0 1.0 0.00 0.03 0.03 52 1004.4
20260510004815 63 221 1.0 1.0 0.00 0.03 0.03 52 1004.3
20260510003817 65 274 2.0 4.0 0.00 0.03 0.03 46 1004.3
20260510002817 65 242 0.0 2.0 0.00 0.03 0.03 47 1004.1
20260510001815 66 253 1.0 2.0 0.00 0.03 0.03 43 1004.0
20260510000817 67 258 1.0 2.0 0.00 0.03 0.03 41 1003.9
20260509235817 68 244 3.0 4.0 0.00 0.03 0.03 40 1003.9
20260509234817 68 278 6.0 12.0 0.00 0.03 0.03 39 1003.7
20260509233837 69 286 7.0 14.0 0.00 0.03 0.03 37 1003.7
20260509232835 70 335 4.0 6.0 0.00 0.03 0.03 36 1003.6
20260509231817 70 233 7.0 18.0 0.00 0.03 0.03 35 1003.5
20260509230817 70 196 5.0 13.0 0.00 0.03 0.03 36 1003.5
20260509225816 70 299 5.0 11.0 0.00 0.03 0.03 34 1003.5
20260509224817 71 245 5.0 12.0 0.00 0.03 0.03 34 1003.3
20260509223817 71 249 5.0 15.0 0.00 0.03 0.03 34 1003.2
20260509222817 71 256 5.0 19.0 0.00 0.03 0.03 35 1003.1
20260509221817 72 262 12.0 17.0 0.00 0.03 0.03 36 1003.0
20260509220817 71 262 6.0 17.0 0.00 0.03 0.03 41 1002.7
20260509215817 69 219 3.0 4.0 0.00 0.03 0.03 53 1002.7
20260509214817 70 226 8.0 15.0 0.00 0.03 0.03 54 1002.6
20260509213817 70 200 4.0 5.0 0.00 0.03 0.03 55 1002.5
20260509212817 70 270 3.0 9.0 0.00 0.03 0.03 56 1002.5
20260509211817 69 233 3.0 8.0 0.01 0.03 0.03 55 1002.5
20260509210817 68 268 4.0 8.0 0.03 0.03 0.03 57 1002.7
20260509205818 66 287 3.0 4.0 0.03 0.03 0.03 61 1002.8
20260509204837 65 262 8.0 15.0 0.03 0.03 0.03 65 1002.8
20260509203817 61 273 2.0 3.0 0.03 0.03 0.03 70 1002.9
20260509202817 61 265 1.0 4.0 0.03 0.03 0.03 70 1002.7